Meath Environmental Platform

Observations for Trim Market St

Time AQI Temp °C Hum % Pres Pa CO μg/m³ H₂S μg/m³ NO μg/m³ NO₂ μg/m³ O₃ μg/m³ SO₂ μg/m³ PM1 μg/m³ PM2.5 μg/m³ PM10 μg/m³
Tuesday 14 July 2026
10:20 1 32 36 65,880 0 0 0 0 26.02 0 2.14 5.21 5.73
10:19 1 31.9 36 65,872 0 0 0 0 16.75 0 2.14 5.2 5.87
10:18 1 31.9 36 65,862 0 0 0 0 16.76 0 3.56 5.72 5.87
10:17 1 31.9 36 65,849 0 0 0 0 22.38 0 2.85 6.24 8.35
10:16 1 31.8 36 65,797 0 0 0 0.34 18.63 0 2.85 5.7 5.87
10:15 1 31.7 37 65,789 0 0 0 0 29.46 0 2.14 4.62 5.05
10:14 1 31.7 37 65,786 0 0 0 0 21.34 0 3.56 5.69 6.7
10:13 1 31.6 37 65,750 0 0 0 0 20.16 0 4.28 7.28 10
10:12 1 31.6 37 65,766 0 0 0 2.36 22.61 0 1.43 5.15 5.67
10:11 1 31.5 37 65,756 0 0 0 0 27.63 0 2.85 6.22 6.7
10:10 1 31.5 37 65,750 0 0 0 0 25.93 0 2.14 5.69 5.88
10:09 1 31.5 37 65,734 0 0 0 0 19.99 0 2.14 5.15 5.88
10:08 1 31.4 37 65,715 0 0 0 0 21.78 0 3.56 6.21 7.53
10:05 1 31.3 37 65,661 0 0 0 0 23.07 0 1.43 5.67 7.53
10:04 1 31.2 37 65,647 0 0 0 0 23.34 0 2.85 5.66 5.88
10:00 1 31 38 65,576 0 0 0 0 25.65 0 2.14 5.11 5.89
09:55 1 30.8 38 65,477 0 0 0 0.64 22.69 0 2.85 6.16 9.98
09:51 1 30.7 38 65,386 0 0 0 0 24.93 0 2.85 5.61 5.9
09:50 1 30.6 38 65,360 0 0 0 0 23.87 0 2.85 5.61 5.9
09:48 1 30.5 39 65,315 0 0 0 0 25.05 0 2.14 5.05 5.9